Location: Euerbach
(50.0620°N, 10.1368°E)
Time: 07:30:10
(UTC+00:00)

Daily predictions for brighter satellites

Satellite Brightness Start Highest point End
(mag) Time Altitude Azimuth Time Altitude Azimuth Time Altitude Azimuth
Meteor 1-27 4.2 19:28:33 10° S 19:34:10 78° E 19:39:46 10° NNE
MetOp-B 4.3 19:34:31 10° SSE 19:39:53 84° WSW 19:45:17 10° NNW
Cosmos 1459 Rocket 4.5 19:35:50 10° SSW 19:42:00 66° WNW 19:48:06 10° N
Cosmos 1980 Rocket 3.5 19:37:28 10° NW 19:42:44 39° WSW 19:47:57 10° S
Cosmos 2061 Rocket 4.2 19:37:22 10° S 19:43:26 58° E 19:49:37 10° NNE
CZ-4 R/B 2.6 19:41:25 10° SSW 19:44:47 36° W 19:48:11 10° NNW
USA 186 2.1 19:43:05 10° SE 19:45:38 36° ENE 19:48:14 10° N
Cosmos 2228 2.8 19:41:56 10° S 19:46:01 76° E 19:50:08 10° NNE
COSMOS 2406 3.5 19:41:12 10° S 19:46:38 46° ESE 19:52:06 10° NE
SL-08 R/B 3.4 19:42:58 10° NNE 19:47:44 59° ESE 19:52:24 10° S
CZ-4B R/B 4.5 19:43:53 10° ESE 19:48:00 30° ENE 19:52:13 10° N
Cosmos 1933 4.4 19:45:34 10° SE 19:48:42 25° E 19:51:52 10° NNE
Cosmos 1743 3.6 19:46:21 10° NNW 19:49:09 35° W 19:51:56 10° SSW
ISS -3.4 19:46:29 10° W 19:49:50 69° N 19:53:10 10° ENE
Cosmos 1461 3.1 19:47:11 10° S 19:50:34 35° ESE 19:53:58 10° NE
Cosmos 1455 Rocket 3.6 19:46:27 10° SSW 19:50:49 64° WNW 19:55:11 10° N
Cosmos 1992 Rocket 4.0 19:45:49 10° S 19:50:56 62° ESE 19:56:05 10° NNE
Cosmos 1892 Rocket 4.4 19:47:10 10° NNW 19:51:20 50° W 19:55:29 10° S
SKYMED 3 4.3 19:47:39 10° NNE 19:51:37 77° ESE 19:55:35 10° S
Cosmos 1802 Rocket 4.3 19:45:39 10° SSW 19:51:48 73° WNW 19:57:57 10° N
Terra 2.3 19:48:11 10° S 19:52:49 61° W 19:57:30 10° NNW
Meteor 1-20 Rocket 4.5 19:48:01 10° N 19:53:32 55° ENE 19:59:06 10° SSE
Okean O Rocket 1.6 19:53:07 10° SSE 19:57:23 75° ENE 20:01:42 10° N
Cosmos 2333 Rocket 2.4 19:53:19 10° NNW 19:59:01 67° ENE 20:04:29 11° SE
NOSS 3-3 (A) 3.7 19:59:21 10° SW 20:04:33 87° SE 20:10:54 10° NE
Cosmos 1544 Rocket 3.7 20:00:23 10° S 20:04:35 51° E 20:08:47 10° NNE
Cosmos 1437 Rocket 3.0 20:03:41 10° SSE 20:07:02 41° E 20:10:27 10° NNE
Cosmos 2360 Rocket 2.7 20:03:29 10° NNW 20:09:01 50° NE 20:13:59 13° SE
Helios 1A Rocket 3.6 20:06:03 10° N 20:09:03 42° WNW 20:12:03 10° SW
CZ-4B R/B 4.1 20:07:45 10° S 20:13:14 50° W 20:18:40 10° NNW
EP 1 4.4 20:11:15 10° NW 20:13:49 65° NE 20:15:44 17° SE
Cosmos 2233 Rocket 4.2 20:09:12 10° SSW 20:15:23 76° WNW 20:21:33 10° N
Cosmos 1486 Rocket 4.2 20:14:21 10° NNW 20:19:35 62° ENE 20:23:55 15° SE
Okean-O 2.8 20:15:14 10° S 20:19:35 69° WSW 20:23:58 10° NNW
Cosmos 1758 Rocket 3.7 20:17:03 10° NNW 20:21:28 80° W 20:25:51 10° S
Cosmos 2219 Rocket 3.0 20:16:19 10° NNW 20:21:42 42° NE 20:26:24 13° ESE
Cosmos 909 Rocket 4.1 20:15:30 10° SW 20:21:48 85° NW 20:28:26 10° NE
CZ-2C R/B 3.3 20:21:09 17° ESE 20:22:34 25° ENE 20:24:56 10° N
DNEPR-1 R/B 4.4 20:24:06 10° NW 20:29:33 87° SW 20:34:57 16° SE
Nadezhda 4 Rocket 4.3 20:24:43 10° N 20:30:42 52° ENE 20:35:26 16° SSE
Meteor 1-25 Rocket 4.2 20:25:13 10° N 20:30:55 80° ENE 20:35:41 15° SSE
USA 245 4.3 20:25:40 12° SSE 20:31:07 86° ENE 20:36:37 10° NNW
IRS-1C Rocket 4.2 20:27:09 15° SSE 20:31:28 66° ENE 20:36:43 10° N
Cosmos 1825 Rocket 4.1 20:29:56 10° N 20:34:06 43° ENE 20:36:52 19° SE
Cosmos 1805 2.9 20:31:29 10° N 20:34:43 57° ENE 20:36:34 22° SSE
Cosmos 220 Rocket 3.8 20:32:58 10° SSW 20:36:59 67° ESE 20:41:05 10° NNE
NOSS 3-3 (C) 4.1 20:31:51 10° SW 20:37:10 73° NW 20:43:39 10° NE
Meteor 2-10 4.4 20:32:52 10° N 20:38:35 63° ENE 20:42:50 18° SSE
Cosmos 2322 Rocket 2.2 20:35:55 10° NNW 20:41:37 85° ENE 20:45:49 19° SSE
Cosmos 1602 Rocket 3.6 20:41:06 10° NNW 20:45:26 79° W 20:48:44 17° S
USA 306 3.5 20:43:40 10° WNW 20:46:05 26° N 20:47:38 11° NE
Cosmos 2082 Rocket 3.7 20:41:32 10° WSW 20:46:53 40° NW 20:52:17 10° NNE
NOSS 3-4 (A) 3.9 20:42:31 10° NW 20:49:11 78° SW 20:55:07 19° SSE
NOSS 3-4 (C) 3.9 20:43:09 10° NW 20:49:50 79° SW 20:55:45 19° SSE
Cosmos 1707 4.0 20:52:04 15° E 20:52:04 15° E 20:53:36 10° NE
CZ-4B R/B 2.8 20:49:58 20° S 20:52:10 61° WSW 20:55:39 10° NNW
Cosmos 2058 Rocket 4.5 20:53:53 19° ESE 20:55:19 23° E 20:58:42 10° NE
Cosmos 2151 3.9 20:51:43 10° NNW 20:55:36 42° W 20:59:05 12° SSW
Cosmos 2098 Rocket 3.0 20:53:24 15° S 20:57:19 81° E 21:01:25 10° NNE
Cosmos 1076 Rocket 3.7 20:53:58 10° N 20:58:09 54° ENE 21:00:20 26° SE
Cosmos 44 4.0 20:53:39 10° NW 20:58:59 55° NE 21:02:45 19° ESE
Cosmos 2237 Rocket 4.3 20:55:24 10° N 20:59:21 19° NE 21:03:18 10° E
CZ-4C R/B 4.4 20:56:38 10° WNW 21:00:50 27° NNW 21:06:02 10° NE
Ariane Rocket 3.1 20:59:02 19° S 21:02:43 72° WSW 21:07:48 10° NNW
Cosmos 2278 4.4 21:03:12 10° NW 21:08:39 47° WSW 21:12:37 18° S
SL-16 R/B 3.4 21:07:29 10° NW 21:12:34 35° WSW 21:16:43 14° SSW
Meteor 1-5 Rocket 4.5 21:07:39 10° NNW 21:13:23 70° W 21:17:38 19° S
SPOT 3 Rocket 4.3 21:09:24 15° S 21:13:27 47° W 21:18:24 10° NNW
COSMOS 2428 3.8 21:08:17 10° NNW 21:13:34 37° NE 21:17:37 16° ESE
Cosmos 1763 Rocket 3.5 21:10:53 18° S 21:14:44 63° ESE 21:19:57 10° NNE
USA 186 4.4 21:14:23 10° WSW 21:15:11 11° W 21:15:59 10° WNW
Cosmos 1470 4.4 21:13:10 10° NNE 21:15:20 16° ENE 21:16:07 15° E
ARIANE 5 R/B 4.5 21:15:19 14° E 21:17:42 20° ENE 21:20:59 10° NNE
USA 290 2.2 21:18:07 25° SSW 21:19:48 77° WNW 21:22:57 10° NNE
Cosmos 1606 Rocket 3.6 21:17:15 20° SSW 21:20:13 79° W 21:24:33 10° N
Cosmos 1898 Rocket 4.5 21:16:29 10° NNW 21:21:19 37° ENE 21:24:24 20° ESE
Cosmos 990 Rocket 3.9 21:18:07 10° NNW 21:23:19 85° WSW 21:26:04 29° SSE
Cosmos 1464 Rocket 4.1 21:18:41 13° SSW 21:24:12 77° W 21:30:26 10° N
Helios 1B rocket 3.2 21:24:22 26° E 21:25:23 31° ENE 21:28:31 10° N
CZ-4B R/B 4.3 21:23:16 18° SSW 21:26:29 41° W 21:31:06 10° NNW
ISS -3.7 21:23:25 10° WNW 21:26:47 79° NNE 21:28:15 31° E
Okean 1 3.1 21:25:54 28° SSW 21:27:38 72° WNW 21:31:14 10° N
Cosmos 1726 Rocket 3.3 21:25:49 28° S 21:27:53 88° W 21:31:58 10° N
BREEZE-M DEB (TANK) 1.7 21:26:25 10° W 21:28:12 44° W 21:28:12 44° W
Okean O Rocket 4.1 21:31:57 10° WSW 21:34:07 14° W 21:36:17 10° WNW
Cosmos 1536 2.8 21:32:23 10° N 21:36:03 57° ENE 21:36:59 42° SE
Cosmos-2242 2.8 21:37:47 38° SSE 21:39:13 69° E 21:43:20 10° NNE
Cosmos 1092 Rocket 3.9 21:35:45 10° N 21:41:57 83° E 21:45:20 29° SSE
Cosmos 2333 Rocket 3.9 21:38:21 10° NW 21:42:49 24° WSW 21:46:30 13° SSW
KORONAS-FOTON 3.7 21:43:53 47° ESE 21:44:08 48° E 21:47:26 10° NNE
Cosmos 2297 Rocket 3.7 21:46:14 18° ESE 21:47:00 18° E 21:50:43 10° ENE
Cosmos 841 Rocket 4.3 21:47:27 29° SE 21:48:38 32° ESE 21:53:16 10° NE
Cosmos 1833 4.3 21:44:12 11° SSW 21:49:36 80° WNW 21:55:16 10° NNE
Cosmos 2360 Rocket 3.3 21:47:47 10° NW 21:52:48 33° WSW 21:55:44 20° SSW
CZ-2C R/B 4.3 21:52:45 15° WSW 21:53:21 15° W 21:55:07 10° NW
Cosmos 1766 3.0 21:53:10 10° NNW 21:56:22 58° W 21:56:45 53° SW
Cosmos 1842 3.1 21:56:49 47° E 21:56:49 47° E 21:59:43 10° NNE
Cosmos 2322 3.7 21:51:50 10° NNW 21:57:34 75° ENE 22:00:18 32° SE
Cosmos 1975 3.3 21:55:08 10° N 21:58:37 39° ENE 21:59:14 36° E
Spot 4 4.4 21:57:15 30° ESE 21:59:11 46° ENE 22:03:46 10° N
Meteor 2-6 Rocket 4.4 21:58:28 32° SSE 22:01:12 65° E 22:07:05 10° NNE
Cosmos 2034 Rocket 4.4 21:58:35 18° SSW 22:03:27 61° WNW 22:09:44 10° N
Cosmos 372 Rocket 3.9 21:58:19 10° NNW 22:03:28 85° WSW 22:05:24 39° SSE
Cosmos 2221 3.1 22:03:18 36° ESE 22:03:57 39° E 22:07:52 10° NNE
Cosmos 2219 Rocket 3.0 22:00:22 10° NW 22:05:38 41° WSW 22:08:05 27° SSW
Cosmos 1271 Rocket 2.5 22:06:22 55° E 22:06:22 55° E 22:09:41 10° NNE
SL-08 ROCKET BODY 4.4 22:04:32 10° N 22:10:45 83° E 22:13:38 34° SSE
Cosmos 540 Rocket 4.1 22:07:44 14° SW 22:12:03 53° WNW 22:17:07 10° NNE
Helios 1A 3.1 22:12:54 10° N 22:16:48 61° WNW 22:18:07 37° SW
Cosmos 2279 Rocket 4.0 22:16:39 33° S 22:19:37 79° E 22:25:54 10° NNE
RESURS DK-1 2.1 22:16:07 10° NNW 22:20:07 80° WSW 22:20:45 60° S
Aureole 1 Rocket 4.4 22:15:48 10° NNW 22:21:29 53° WSW 22:24:34 30° SSW
Cosmos 1707 3.7 22:23:33 25° W 22:23:54 25° WNW 22:26:20 10° NNW
Cosmos 2322 Rocket 4.1 22:21:14 10° WNW 22:24:55 18° W 22:27:37 13° SW
Cosmos 1634 Rocket 4.1 22:22:33 27° SSW 22:26:03 70° WNW 22:32:16 10° N
Meteor 1-19 Rocket 4.4 22:24:38 37° SSE 22:26:51 63° E 22:32:43 10° NNE
Cosmos 1937 Rocket 3.4 22:23:13 10° NNW 22:28:23 87° ENE 22:30:09 42° SSE
TSX-5 4.2 22:27:16 10° NW 22:29:55 37° W 22:29:55 37° W
Geosat 4.3 22:27:26 10° NNE 22:32:25 66° NW 22:35:38 22° SW
SL-16 R/B 4.2 22:28:06 10° NNW 22:32:42 24° NE 22:37:16 10° E
Cosmos 2058 Rocket 4.0 22:30:59 26° SW 22:32:55 41° WNW 22:37:02 10° N
CZ-2C R/B 3.6 22:28:34 10° NNE 22:33:04 80° ESE 22:34:15 49° S
Cosmos 468 Rocket 4.4 22:30:13 23° SW 22:33:26 62° WNW 22:38:39 10° NNE
GP-B 3.7 22:31:07 10° NNE 22:35:19 44° E 22:36:11 38° ESE
Meteor 2-9 Rocket 4.2 22:34:02 10° NNW 22:39:25 73° W 22:41:24 40° S
Cosmos 44 4.4 22:35:10 10° NW 22:39:56 33° WSW 22:41:01 30° SW
CZ-2C R/B 3.5 22:39:09 25° ESE 22:41:40 40° ENE 22:46:30 10° N
Lacrosse 4 Rocket 2.9 22:42:44 23° E 22:42:44 23° E 22:45:21 10° ENE
Cosmos 2237 Rocket 2.4 22:38:49 10° NNW 22:44:30 68° ENE 22:47:09 32° SE
SeaSat 1 4.1 22:42:54 10° ESE 22:47:05 29° NE 22:51:16 10° NNW
USA 234 3.6 22:41:33 10° ENE 22:47:44 43° SE 22:49:36 35° S
Cosmos 2266 Rocket 3.9 22:41:54 10° N 22:47:58 84° E 22:50:26 38° SSE
Cosmos 1980 3.7 22:43:04 10° NNW 22:48:46 78° ENE 22:51:12 36° SE
Cosmos 1470 3.4 22:46:21 10° NNW 22:49:19 35° W 22:49:19 35° W
ATLAS 2AS CENTAUR R/B 4.4 22:46:39 10° NW 22:52:38 31° NNE 22:58:35 10° E
Intercosmos 24 3.9 22:49:20 10° N 22:53:07 55° ENE 22:53:29 52° ESE
ARIANE 5 R/B 2.9 22:52:41 47° SSW 22:53:37 57° W 22:58:02 10° NNW
ALOS 2 2.7 22:54:46 52° SSW 22:55:39 66° WSW 23:00:03 10° NNW
Cosmos 2227 Rocket 3.4 22:55:49 25° ESE 22:56:58 27° ESE 23:01:38 10° NE
COSMOS 2428 3.2 22:52:30 10° NW 22:57:57 47° WSW 22:59:34 37° SSW
Helios 1B rocket 3.8 22:58:18 22° W 22:58:25 22° W 23:01:12 10° NW
Meteor 2-4 Rocket 4.1 23:00:13 36° SE 23:01:53 47° E 23:07:11 10° NNE
BlueWalker 3 3.9 23:05:21 16° E 23:05:21 16° E 23:06:20 10° ENE
Cosmos 1898 Rocket 4.3 22:58:32 10° NW 23:03:18 38° WSW 23:04:34 33° SW
ISS -1.4 23:00:21 10° W 23:01:11 16° W 23:01:11 16° W
Cosmos 2263 Rocket 3.8 23:03:56 19° ESE 23:05:08 20° E 23:09:03 10° NE
CZ-2C R/B 3.5 23:01:40 10° NNE 23:07:24 62° E 23:09:26 40° SSE
Meteor 1-11 Rocket 3.8 23:02:41 10° NNW 23:08:18 66° W 23:10:10 41° SSW
Cosmos 1766 Rocket 3.6 23:04:57 10° N 23:09:16 67° ENE 23:10:08 52° SE
SAR-Lupe-2 3.9 23:10:57 49° W 23:10:57 49° W 23:13:56 10° NNW
Meteor 1-10 Rocket 4.4 23:11:29 36° SSW 23:13:59 74° WNW 23:19:58 10° N
Cosmos 1238 Rocket 2.9 23:14:04 57° SE 23:14:35 64° E 23:18:57 10° NNE
PSLV R/B 3.7 23:11:54 10° N 23:16:10 68° WNW 23:17:16 47° SW
Cosmos 1655 Rocket 4.0 23:15:13 10° N 23:21:29 77° E 23:24:15 36° SSE
Cosmos 192 4.4 23:17:40 10° NNW 23:22:38 75° ENE 23:24:20 41° SE
Cosmos 1814 Rocket 4.5 23:21:58 39° SE 23:23:12 47° ESE 23:28:14 10° NNE
Alouette 2 Rocket 3.5 23:23:18 10° NNW 23:27:07 84° ENE 23:28:18 50° SSE
Meteor 1-27 Rocket 3.7 23:25:49 40° SSW 23:28:03 84° WNW 23:33:49 10° N
Meteor 2-10 Rocket 3.8 23:24:16 10° N 23:29:49 71° ENE 23:32:13 36° SSE
Cosmos 841 Rocket 4.4 23:27:23 23° WSW 23:30:17 43° WNW 23:35:18 10° NNE
Cosmos 2297 Rocket 2.2 23:27:59 37° SW 23:30:18 84° WNW 23:36:00 10° NNE
SL-14 R/B 4.0 23:39:49 37° ESE 23:40:14 38° E 23:43:47 10° NNE
Cosmos 2221 4.2 23:39:35 19° W 23:41:07 23° WNW 23:44:31 10° NNW
Cosmos 158 Rocket 4.0 23:39:40 44° S 23:41:21 74° ESE 23:46:40 10° NNE
CZ-4C R/B 3.8 23:38:32 10° NNE 23:41:47 39° E 23:41:48 39° E
ACS3 Solar Sail 2.4 23:37:50 10° NNE 23:43:34 46° E 23:46:10 29° SSE
MetOp-A 4.3 23:42:38 41° SW 23:43:40 47° W 23:48:10 10° NNW
Landsat 5 3.3 23:43:49 10° NNE 23:47:53 70° ESE 23:48:28 59° SSE
